Weather History for Saranac Lake, NY

Change the Weather History Date:

Tuesday, September 2, 2014

  Actual Average Record
Temperature  
Mean Temperature 69 °F 59 °F  
Max Temperature 81 °F 72 °F 88 °F (2010)
Min Temperature 56 °F 46 °F 30 °F (1992)
Degree Days  
Heating Degree Days 0 7  
Month to date heating degree days 0 14  
Since 1 July heating degree days 279 254  
Cooling Degree Days 4 1  
Month to date cooling degree days 8 2  
Year to date cooling degree days 76 109  
Growing Degree Days 18 (Base 50)    
Moisture  
Dew Point 62 °F    
Average Humidity 76    
Maximum Humidity 100    
Minimum Humidity 51    
Precipitation  
Precipitation 0.51 in 0.13 in 1.19 in (2013)
Month to date precipitation 0.70 0.24  
Year to date precipitation 26.66 24.78  
Sea Level Pressure  
Sea Level Pressure 29.83 in    
Wind  
Wind Speed 6 mph (WSW)    
Max Wind Speed 18 mph    
Max Gust Speed 23 mph    
Visibility 6 miles    
Events Fog , Rain    
T = Trace of Precipitation, MM = Missing Value Source: NWS Daily Summary

Daily Weather History Graph

Daily Weather History Graph

Search for Another Location

Airport:

Trip Planner

Search our weather history database for the weather conditions in past years. The results will help you decide how hot, cold, wet, or windy it might be!

Date:

Astronomy

Sep. 02, 2014 Rise Set
Actual Time 6:20 AM EDT 7:31 PM EDT
Civil Twilight 5:50 AM EDT 8:01 PM EDT
Nautical Twilight 5:14 AM EDT 8:36 PM EDT
Astronomical Twilight 4:36 AM EDT 9:14 PM EDT
Moon 2:18 PM EDT (9/2) No Moon Set
Length of Visible Light 14h 10m
Length of Day
13h 10m
First Quarter, 52% of the Moon is Illuminated
Sep 2
First Quarter
Sep 8
Full
Sep 15
Last Quarter
Sep 24
New
Oct 1
First Quarter

Hourly Weather History & Observations

Time (EDT) Temp. Heat Index Dew Point Humidity Pressure Visibility Wind Dir Wind Speed Gust Speed Precip Events Conditions
12:51 AM 57.9 °F - 55.9 °F 93% 29.89 in 6.0 mi Calm Calm - N/A   Clear
1:51 AM 57.9 °F - 57.0 °F 97% 29.87 in 9.0 mi Calm Calm - N/A   Clear
2:51 AM 57.0 °F - 55.0 °F 93% 29.86 in 7.0 mi Calm Calm - N/A   Clear
3:47 AM 57.2 °F - 55.4 °F 94% 29.87 in 7.0 mi Calm Calm - N/A   Partly Cloudy
3:51 AM 57.0 °F - 55.9 °F 96% 29.85 in 6.0 mi Calm Calm - N/A   Clear
5:22 AM 59.0 °F - 57.9 °F 96% 29.87 in 7.0 mi Calm Calm - N/A   Overcast
5:46 AM 60.8 °F - 59.0 °F 94% 29.87 in 1.5 mi Calm Calm - N/A   Scattered Clouds
5:48 AM 60.8 °F - 59.0 °F 94% 29.87 in 0.8 mi Calm Calm - N/A   Scattered Clouds
5:51 AM 60.1 °F - 59.0 °F 96% 29.85 in 0.5 mi Calm Calm - N/A Fog Fog
6:02 AM 60.1 °F - 59.0 °F 96% 29.87 in 2.0 mi Calm Calm - N/A   Partly Cloudy
6:11 AM 61.0 °F - 57.9 °F 90% 29.87 in 3.0 mi WSW 3.5 mph - N/A   Partly Cloudy
6:13 AM 61.0 °F - 59.0 °F 93% 29.87 in 1.0 mi WSW 3.5 mph - N/A   Mist
6:17 AM 61.0 °F - 60.1 °F 97% 29.88 in 0.5 mi WSW 3.5 mph - N/A Fog Fog
6:24 AM 60.1 °F - 60.1 °F 100% 29.88 in 0.5 mi Calm Calm - N/A Fog Fog
6:34 AM 61.0 °F - 60.1 °F 97% 29.87 in 1.8 mi SW 3.5 mph - N/A   Partly Cloudy
6:39 AM 61.0 °F - 60.1 °F 97% 29.87 in 3.0 mi SW 4.6 mph - N/A   Partly Cloudy
6:51 AM 64.0 °F - 62.1 °F 93% 29.86 in 4.0 mi WSW 5.8 mph - N/A   Scattered Clouds
7:21 AM 66.9 °F - 66.0 °F 97% 29.88 in 4.0 mi SW 4.6 mph - N/A   Mostly Cloudy
7:28 AM 66.9 °F - 66.0 °F 97% 29.88 in 4.0 mi WSW 5.8 mph - N/A   Scattered Clouds
7:36 AM 68.0 °F - 66.0 °F 93% 29.88 in 5.0 mi SW 8.1 mph - N/A   Mostly Cloudy
7:51 AM 68.0 °F - 66.0 °F 93% 29.86 in 5.0 mi SW 5.8 mph - N/A   Overcast
8:51 AM 72.0 °F - 66.0 °F 81% 29.86 in 7.0 mi SW 9.2 mph - N/A   Mostly Cloudy
9:51 AM 73.0 °F - 66.0 °F 79% 29.86 in 9.0 mi SW 11.5 mph - N/A   Mostly Cloudy
10:03 AM 73.9 °F - 66.0 °F 76% 29.88 in 10.0 mi SW 13.8 mph 23.0 mph N/A   Mostly Cloudy
11:51 AM 78.1 °F - 63.0 °F 60% 29.85 in 10.0 mi WSW 12.7 mph 21.9 mph N/A   Scattered Clouds
12:51 PM 78.1 °F - 62.1 °F 58% 29.84 in 10.0 mi SW 12.7 mph - N/A   Scattered Clouds
1:51 PM 79.0 °F - 62.1 °F 56% 29.83 in 10.0 mi WSW 11.5 mph 20.7 mph N/A   Partly Cloudy
2:51 PM 80.1 °F 81.1 °F 61.0 °F 52% 29.80 in 10.0 mi SW 11.5 mph 20.7 mph N/A   Mostly Cloudy
3:51 PM 79.0 °F - 61.0 °F 54% 29.78 in 10.0 mi West 5.8 mph - N/A   Clear
4:51 PM 78.1 °F - 62.1 °F 58% 29.77 in 10.0 mi WSW 8.1 mph - N/A   Scattered Clouds
5:26 PM 72.0 °F - 64.9 °F 78% 29.80 in 1.8 mi WSW 6.9 mph - 0.06 in Rain Heavy Rain
5:35 PM 70.0 °F - 66.0 °F 87% 29.80 in 3.0 mi SW 5.8 mph - 0.06 in Rain Light Rain
5:51 PM 70.0 °F - 66.9 °F 90% 29.78 in 8.0 mi West 4.6 mph - 0.06 in   Overcast
6:51 PM 68.0 °F - 66.0 °F 93% 29.77 in 8.0 mi West 4.6 mph - N/A   Overcast
7:27 PM 68.0 °F - 64.9 °F 90% 29.79 in 2.5 mi Calm Calm - 0.04 in Rain Rain
7:32 PM 66.9 °F - 64.9 °F 93% 29.80 in 1.0 mi Variable 3.5 mph - 0.13 in Rain Heavy Rain
7:35 PM 66.9 °F - 64.9 °F 93% 29.80 in 0.8 mi Variable 6.9 mph - 0.19 in Rain Heavy Rain
7:51 PM 66.0 °F - 64.9 °F 96% 29.78 in 1.8 mi WSW 4.6 mph - 0.41 in Rain Rain
7:55 PM 66.0 °F - 64.9 °F 96% 29.80 in 3.0 mi Variable 4.6 mph - 0.00 in Rain Light Rain
7:59 PM 66.0 °F - 64.9 °F 96% 29.80 in 4.0 mi Calm Calm - 0.00 in Rain Light Rain
8:15 PM 66.0 °F - 64.0 °F 93% 29.81 in 4.0 mi Variable 4.6 mph - 0.01 in Rain Light Rain
8:51 PM 61.0 °F - 59.0 °F 93% 29.79 in 10.0 mi North 4.6 mph - 0.02 in Rain Light Rain
8:58 PM 61.0 °F - 60.1 °F 97% 29.82 in 10.0 mi NNW 3.5 mph - 0.00 in   Overcast
9:51 PM 60.1 °F - 59.0 °F 96% 29.76 in 10.0 mi SE 5.8 mph - 0.02 in Rain Light Rain
10:23 PM 61.0 °F - 59.0 °F 93% 29.76 in 10.0 mi Calm Calm - 0.00 in   Mostly Cloudy
10:32 PM 60.1 °F - 59.0 °F 96% 29.78 in 10.0 mi NW 3.5 mph - 0.00 in   Overcast
10:46 PM 60.8 °F - 59.0 °F 94% 29.80 in 10.0 mi WNW 3.5 mph - 0.00 in   Overcast
11:51 PM 60.1 °F - 59.0 °F 96% 29.81 in 10.0 mi Calm Calm - N/A   Scattered Clouds